[[{"header":{"parameterUnit":"m.s-1","parameterCategory":1,"la1":30.2991,"la2":30.254,"lo1":-89.0895,"lo2":-89.0444,"dy":0.0017,"dx":0.0017,"nx":28,"ny":28,"refTime":"2024-02-11T03:00:00:Z","depth":0,"parameterNumber":2,"parameterNumberName":"U-component_of_WINDS"},"data":[0,0,0,0,0,0,0,0,0,0,0,0,0,0,0,0,0,0,0,0,0,0,0,0,0,0,0,0,0,0,0,0,0,0,0,0,0,0,0,0,0,0,0,0,0,0,0,0,0,0,0,0,0,0,0,0,0,0,-3.1072,-3.1073,0,-3.1208,-3.121,-3.1211,-3.121,-3.1208,-3.1206,-3.1204,-3.1348,-3.1354,-3.1359,0,0,0,0,0,0,0,0,0,0,0,0,0,-3.0815,-3.082,-3.1071,-3.1073,-3.1075,-3.1208,-3.121,-3.1212,-3.121,-3.1208,-3.1206,-3.1204,-3.1347,-3.1353,-3.136,0,0,0,0,0,0,0,0,0,0,0,0,0,-3.0937,-3.0821,-3.1071,-3.109,-3.1093,-3.1208,-3.121,-3.1212,-3.1211,-3.1208,-3.1205,-3.1202,-3.1344,-3.1352,-3.1361,-3.1467,0,0,-3.1386,-3.139,0,0,0,0,0,0,0,0,-3.093,-3.0946,-3.1085,-3.1089,-3.1092,-3.1189,-3.1172,-3.1298,-3.1211,-3.1166,-3.1204,-3.1201,-3.1298,-3.131,-3.1342,-3.1474,-3.148,-3.1387,-3.1392,-3.1395,-3.1398,0,0,0,0,0,0,0,-3.0921,-3.094,-3.1126,-3.1088,-3.1092,-3.1094,-3.1108,-3.1196,-3.1246,-3.117,-3.117,-3.1186,-3.1299,-3.1334,-3.1345,-3.1482,-3.1387,-3.1394,-3.1399,-3.1402,-3.1711,-3.1714,0,0,0,0,0,0,-3.0908,-3.0933,-3.1121,-3.113,-3.1002,-3.11,-3.1116,-3.1161,-3.1245,-3.1255,-3.1188,-3.1185,-3.1321,-3.1335,-3.135,-3.1481,-3.1395,-3.1403,-3.1408,-3.1708,-3.1712,-3.1716,0,0,0,0,0,0,-3.0903,-3.0925,-3.1116,-3.1032,-3.1056,-3.1108,-3.1158,-3.1165,-3.1199,-3.1259,-3.1268,-3.1214,-3.1319,-3.1338,-3.1438,-3.1486,-3.1407,-3.1414,-3.1704,-3.1709,-3.1714,-3.1743,0,0,0,0,0,0,-3.0895,-3.0923,-3.0962,-3.1032,-3.106,-3.12,-3.1161,-3.117,-3.1213,-3.1211,-3.1285,-3.1295,-3.1318,-3.1426,-3.1447,-3.1496,-3.1421,-3.17,-3.1707,-3.1712,-3.1738,-3.1749,-3.1757,0,0,0,0,0,-3.0886,-3.0965,-3.0964,-3.0987,-3.111,-3.1202,-3.1219,-3.1243,-3.1217,-3.1258,-3.1297,-3.1292,-3.1478,-3.1436,-3.1459,-3.1512,-3.1697,-3.1705,-3.1712,-3.1734,-3.1747,-3.1757,0,0,0,0,0,0,-3.09,-3.0975,-3.0974,-3.1078,-3.1134,-3.1202,-3.1254,-3.1255,-3.1321,-3.1316,-3.1345,-3.1362,-3.1462,-3.1498,-3.1449,-3.1621,-3.1585,-3.1597,-3.1594,-3.1606,-3.1615,-3.1604,-3.1428,0,0,0,0,0,-3.0915,-3.0982,-3.1044,-3.113,-3.1158,-3.1202,-3.1243,-3.1257,-3.1316,-3.134,-3.1386,-3.1445,-3.1517,-3.1564,-3.1633,-3.1744,-3.1762,-3.1793,-3.1802,-3.181,-3.182,-3.1883,-3.1898,-3.1739,-3.1739,-3.1739,0,0,-3.0946,-3.0996,-3.1036,-3.1134,-3.1179,-3.125,-3.1221,-3.1297,-3.135,-3.1352,-3.1449,-3.1485,-3.1554,-3.166,-3.1709,-3.1693,-3.1868,-3.1819,-3.1824,-3.183,-3.1892,-3.1907,-3.192,-3.1744,-3.1743,-3.1743,0,0,-3.104,-3.1084,-3.116,-3.1207,-3.1275,-3.1304,-3.1323,-3.1392,-3.1415,-3.1513,-3.1517,-3.1582,-3.1705,-3.1754,-3.1795,-3.1911,-3.1911,-3.1934,-3.1983,-3.2044,-3.2057,-3.2068,-3.2111,-3.2125,-3.1944,-3.1944,-3.1944,0,-3.1071,-3.1176,-3.12,-3.1276,-3.132,-3.1326,-3.1405,-3.1449,-3.1538,-3.1569,-3.1549,-3.1705,-3.1751,-3.187,-3.1899,-3.1932,-3.1955,-3.1924,-3.2053,-3.2064,-3.2075,-3.2116,-3.2132,-3.1946,-3.1946,-3.1946,-3.1945,0,-3.1211,-3.1284,-3.1339,-3.1423,-3.1473,-3.1551,-3.1589,-3.1638,-3.1649,-3.1681,-3.1782,-3.1839,-3.192,-3.195,-3.1962,-3.2072,-3.206,-3.2046,-3.201,-3.2092,-3.2131,-3.2147,-3.1949,-3.1948,-3.1948,-3.1947,0,0,-3.1314,-3.1413,-3.1432,-3.1472,-3.1549,-3.1607,-3.1687,-3.1766,-3.1808,-3.187,-3.1938,-3.2044,-3.2033,-3.2079,-3.2097,-3.2151,-3.2242,-3.2132,-3.2134,-3.215,-3.2368,-3.2377,-3.2395,-3.2243,-3.2246,-3.2248,-3.2363,0,-3.1416,-3.1554,-3.1581,-3.1702,-3.1772,-3.178,-3.1849,-3.1906,-3.1939,-3.2004,-3.2041,-3.2116,-3.2095,-3.2124,-3.2178,-3.2219,-3.2286,-3.2211,-3.2308,-3.2311,-3.2289,-3.2415,-3.2424,-3.2529,-3.2378,-3.2381,-3.2382,0,-3.1552,-3.1617,-3.1745,-3.1816,-3.1846,-3.1907,-3.1984,-3.2045,-3.2111,-3.2132,-3.2185,-3.2198,-3.2284,-3.2245,-3.2364,-3.2313,-3.2355,-3.2382,-3.2387,-3.2396,-3.235,-3.2427,-3.2563,-3.2578,-3.2406,-3.2405,-3.2403,0,-3.1615,-3.1735,-3.1827,-3.1861,-3.1945,-3.1989,-3.2026,-3.2089,-3.2136,-3.2204,-3.2235,-3.2312,-3.2354,-3.2415,-3.2449,-3.2418,-3.2567,-3.2531,-3.2588,-3.2587,-3.2617,-3.2614,-3.2761,-3.2645,-3.2645,-3.2645,-3.2644,0,-3.1725,-3.1804,-3.1857,-3.1913,-3.2003,-3.2034,-3.2122,-3.2159,-3.2216,-3.2282,-3.2295,-3.2357,-3.2399,-3.2468,-3.2496,-3.2592,-3.2611,-3.2631,-3.2637,-3.2629,-3.2627,-3.2656,-3.2649,-3.2649,-3.2648,-3.2647,-3.2646,0,-3.1809,-3.1848,-3.1949,-3.2022,-3.2042,-3.2105,-3.2168,-3.2225,-3.2259,-3.2343,-3.2364,-3.2419,-3.2501,-3.2541,-3.2644,-3.2663,-3.2771,-3.2773,-3.2748,-3.275,-3.2805,-3.2799,-3.2975,-3.3,-3.2868,-3.2869,-3.287,0,-3.1877,-3.1937,-3.2016,-3.2061,-3.2099,-3.2171,-3.2219,-3.2254,-3.2304,-3.2385,-3.2433,-3.2516,-3.2583,-3.2715,-3.2765,-3.2844,-3.2848,-3.2904,-3.286,-3.2851,-3.2849,-3.2845,-3.2851,-3.2911,-3.2913,-3.2914,-3.2915,0,-3.1992,-3.2009,-3.2077,-3.2152,-3.2209,-3.2271,-3.2331,-3.2368,-3.2413,-3.2469,-3.2553,-3.2605,-3.2711,-3.2793,-3.2877,-3.2918,-3.2925,-3.2929,-3.2946,-3.2938,-3.2921,-3.2931,-3.2769,-3.2924,-3.2923,-3.2922,-3.2922,-3.2921,-3.207,-3.2125,-3.2189,-3.2266,-3.2315,-3.2372,-3.243,-3.2471,-3.2541,-3.2628,-3.2646,-3.2735,-3.2803,-3.2915,-3.296,-3.3032,-3.302,-3.3045,-3.3051,-3.3056,-3.3059,-3.291,-3.3047,-3.3047,-3.3047,-3.3047,-3.3047,0,-3.2187,-3.2229,-3.2299,-3.2383,-3.2444,-3.2445,-3.2513,-3.2564,-3.2642,-3.2704,-3.277,-3.2868,-3.295,-3.3007,-3.309,-3.3137,-3.3142,-3.3157,-3.3154,-3.3164,-3.3065,-3.3042,-3.3152,-3.3152,-3.3152,-3.3152,-3.3152,-3.3152,-3.2254,-3.2347,-3.2372,-3.2491,-3.2534,-3.262,-3.2659,-3.2713,-3.2763,-3.2871,-3.2938,-3.2975,-3.3036,-3.3124,-3.3199,-3.3214,-3.3244,-3.326,-3.3275,-3.3181,-3.317,-3.316,-3.3138,-3.3266,-3.3266,-3.3367,-3.3368,-3.3369]},{"header":{"parameterUnit":"m.s-1","parameterCategory":1,"la1":30.2991,"la2":30.254,"lo1":-89.0895,"lo2":-89.0444,"dy":0.0017,"dx":0.0017,"nx":28,"ny":28,"refTime":"2024-02-11T03:00:00:Z","depth":0,"parameterNumber":3,"parameterNumberName":"V-component_of_WINDS"},"data":[0,0,0,0,0,0,0,0,0,0,0,0,0,0,0,0,0,0,0,0,0,0,0,0,0,0,0,0,0,0,0,0,0,0,0,0,0,0,0,0,0,0,0,0,0,0,0,0,0,0,0,0,0,0,0,0,0,0,3.6303,3.6303,0,3.6249,3.6249,3.6248,3.6217,3.6217,3.6217,3.6217,3.6159,3.6158,3.6157,0,0,0,0,0,0,0,0,0,0,0,0,0,3.638,3.6378,3.6304,3.6303,3.6302,3.6249,3.6249,3.6248,3.6217,3.6217,3.6217,3.6217,3.616,3.6158,3.6157,0,0,0,0,0,0,0,0,0,0,0,0,0,3.6338,3.6378,3.6304,3.628,3.6278,3.625,3.6249,3.6248,3.6217,3.6217,3.6217,3.6217,3.616,3.6158,3.6156,3.6146,0,0,3.615,3.6149,0,0,0,0,0,0,0,0,3.634,3.6335,3.6285,3.6282,3.6279,3.624,3.6254,3.6214,3.6217,3.624,3.6217,3.6217,3.6186,3.6182,3.6172,3.6144,3.6141,3.615,3.6148,3.6147,3.6147,0,0,0,0,0,0,0,3.6343,3.6337,3.6282,3.6284,3.628,3.6273,3.6267,3.6247,3.6215,3.6238,3.6236,3.623,3.6185,3.6174,3.6171,3.614,3.615,3.6148,3.6146,3.6146,3.6102,3.6102,0,0,0,0,0,0,3.635,3.634,3.6284,3.628,3.631,3.6271,3.6265,3.6253,3.6215,3.6209,3.623,3.6229,3.6178,3.6173,3.6168,3.6155,3.6147,3.6145,3.6144,3.6102,3.6102,3.6102,0,0,0,0,0,0,3.6352,3.6345,3.6286,3.631,3.6301,3.627,3.6257,3.6252,3.6241,3.6209,3.6203,3.6225,3.6178,3.6171,3.6152,3.6153,3.6144,3.6142,3.6102,3.6102,3.6102,3.6128,0,0,0,0,0,0,3.6354,3.6346,3.6342,3.631,3.63,3.6271,3.6257,3.6251,3.6238,3.6235,3.6203,3.6197,3.6177,3.6156,3.615,3.6149,3.6141,3.6102,3.6102,3.6102,3.6127,3.6129,3.6131,0,0,0,0,0,3.6357,3.6351,3.6342,3.6335,3.6295,3.6271,3.6266,3.6243,3.6238,3.6234,3.6213,3.6198,3.6154,3.6154,3.6148,3.6146,3.6102,3.6102,3.6102,3.6126,3.6129,3.6131,0,0,0,0,0,0,3.6383,3.6346,3.6336,3.6319,3.6299,3.6266,3.626,3.6247,3.6227,3.6225,3.6198,3.619,3.6174,3.6158,3.616,3.6135,3.6126,3.6125,3.6146,3.6148,3.615,3.6154,3.6139,0,0,0,0,0,3.6387,3.6371,3.634,3.6328,3.6318,3.6291,3.628,3.6265,3.6242,3.6233,3.6211,3.6189,3.617,3.6158,3.6139,3.6125,3.6117,3.612,3.6122,3.6124,3.6123,3.6115,3.6117,3.6103,3.6103,3.6103,0,0,3.6394,3.6372,3.6364,3.6333,3.6315,3.63,3.6284,3.6268,3.6256,3.623,3.6212,3.6195,3.6169,3.6152,3.6144,3.6138,3.6126,3.6124,3.6126,3.6124,3.6116,3.6117,3.6118,3.6104,3.6104,3.6104,0,0,3.64,3.6382,3.6371,3.6354,3.6328,3.631,3.6308,3.6277,3.6265,3.6246,3.6227,3.6213,3.618,3.6163,3.615,3.6152,3.6137,3.6146,3.6156,3.6148,3.6149,3.615,3.6151,3.6152,3.6145,3.6146,3.6146,0,3.6413,3.6389,3.6366,3.6352,3.6339,3.6316,3.6305,3.6289,3.6258,3.625,3.6244,3.6205,3.6185,3.6165,3.6166,3.6156,3.6152,3.6149,3.6151,3.6152,3.6152,3.6153,3.6153,3.6147,3.6147,3.6147,3.6146,0,3.6406,3.639,3.6384,3.6356,3.6342,3.6329,3.6305,3.6294,3.628,3.6263,3.6244,3.6221,3.6197,3.6191,3.6177,3.6169,3.6166,3.6156,3.6147,3.6155,3.6155,3.6155,3.6149,3.6148,3.6148,3.6147,0,0,3.6425,3.6386,3.6385,3.6372,3.6343,3.633,3.6316,3.6294,3.6285,3.6265,3.6253,3.6227,3.6218,3.6203,3.6187,3.6181,3.6184,3.6171,3.6171,3.6175,3.6175,3.6183,3.6184,3.6175,3.6175,3.6175,3.6177,0,3.6427,3.6403,3.6383,3.6365,3.6351,3.633,3.6318,3.6299,3.6283,3.6268,3.625,3.6232,3.6221,3.6213,3.6205,3.6186,3.6184,3.6185,3.6164,3.6163,3.6171,3.6184,3.6191,3.6195,3.6177,3.6177,3.6177,0,3.6426,3.6408,3.6389,3.6363,3.6356,3.6346,3.6325,3.6311,3.6289,3.6277,3.6262,3.6246,3.6231,3.6223,3.6202,3.6203,3.6193,3.6182,3.6182,3.6179,3.6171,3.6181,3.6195,3.6196,3.6177,3.6177,3.6177,0,3.6443,3.6414,3.6399,3.6389,3.6357,3.6351,3.6338,3.6315,3.6304,3.6285,3.6277,3.6257,3.6246,3.623,3.6209,3.6205,3.619,3.618,3.618,3.6181,3.6178,3.6178,3.6191,3.6171,3.6171,3.6171,3.6171,0,3.6447,3.6436,3.6407,3.6398,3.6386,3.6363,3.6352,3.6336,3.6317,3.6305,3.6285,3.6274,3.6247,3.6232,3.6215,3.6201,3.6196,3.6186,3.6182,3.6188,3.6189,3.6181,3.618,3.6171,3.6171,3.6171,3.6171,0,3.6463,3.6443,3.6426,3.6398,3.6391,3.6383,3.6359,3.635,3.6334,3.6319,3.6314,3.6288,3.627,3.6247,3.6222,3.621,3.6198,3.6191,3.6206,3.6203,3.6205,3.6205,3.6213,3.6213,3.6193,3.6193,3.6194,0,3.6467,3.6459,3.6431,3.6422,3.6409,3.6395,3.6383,3.6361,3.635,3.6325,3.6319,3.63,3.6284,3.6256,3.6235,3.6215,3.6208,3.6212,3.6205,3.6212,3.6209,3.6209,3.6209,3.6214,3.6214,3.6214,3.6215,0,3.6476,3.6467,3.6452,3.6434,3.6421,3.6405,3.6388,3.6382,3.6356,3.6345,3.6327,3.6314,3.6289,3.6271,3.6249,3.6235,3.622,3.6217,3.6216,3.6222,3.6232,3.6227,3.6211,3.6217,3.6217,3.6216,3.6216,3.6216,3.6487,3.6479,3.6459,3.6443,3.6428,3.6414,3.6404,3.6387,3.6372,3.6351,3.6339,3.6322,3.6301,3.627,3.6257,3.6243,3.6237,3.6236,3.6236,3.6236,3.6238,3.6234,3.6239,3.6239,3.6239,3.6238,3.6238,0,3.6496,3.6482,3.6468,3.6446,3.6433,3.6422,3.6404,3.6394,3.638,3.6362,3.6347,3.6327,3.6309,3.6287,3.6268,3.6261,3.6254,3.6257,3.6257,3.6254,3.6244,3.6247,3.6263,3.6263,3.6263,3.6263,3.6263,3.6263,3.6499,3.6485,3.6474,3.6454,3.644,3.6424,3.6415,3.6401,3.6387,3.6366,3.6352,3.6338,3.6319,3.6299,3.6282,3.6276,3.627,3.6275,3.6267,3.6257,3.6255,3.6253,3.6256,3.6274,3.6274,3.6279,3.6279,3.6279]}]]